Flag for Spain Weather past 2 weeks in Santa Cruz de Tenerife, Canary Islands, Spain

Now
64 °F

Fog.


Feels Like: 64 °F
Forecast: 73 / 79 °F
Wind: 24 mph from Northwest

Location: Tenerife / Los Rodeos

Current Time: Jul 31, 2015 at 2:47:17 AM

Latest Report: Jul 30, 2015 at 11:00 PM


Visibility: N/A

Pressure: 30.09 "Hg

Humidity: 94%

Dew point: 63 °F

Location of Santa Cruz de TenerifeLocation

Historic Weather in Santa Cruz de Tenerife — Graph

°F

Santa Cruz de Tenerife temperature yesterday

Maximum temperature yesterday: 72 °F (at 3:00 PM)
Minimum temperature yesterday: 64 °F (at 6:00 AM)
Average temperature yesterday: 67 °F

Past Weeks' High & Low Weather Summary

 TemperatureHumidityPressure
High88 °F (Jul 17, 12:30 PM)100% (Jul 16, 7:00 AM)30.24 "Hg (Jul 16, 7:00 AM)
Low61 °F (Jul 16, 7:00 AM)16% (Jul 15, 11:00 PM)30.04 "Hg (Jul 20, 6:30 PM)
Average69 °F81%30.12 "Hg
* Reported Jul 15 11:00 PM — Jul 30 11:00 PM, Santa Cruz de Tenerife, Weather by CustomWeather, © 2015

Note: Actual official high and low records may vary slightly from our data, if they occured in-between our weather recording intervals... More about our weather records

Advertising

Santa Cruz de Tenerife weather history for previous 24 hours

 ConditionsComfort  
Time TempWeatherWind HumidityBarometerVisibility
11:00 PM
Thu, Jul 30
64 °FFog.24 mph94%30.09 "HgN/A
10:30 PM64 °FPassing clouds.24 mph88%30.09 "HgN/A
10:00 PM64 °FPassing clouds.25 mph94%30.07 "HgN/A
9:30 PM64 °FBroken clouds.23 mph94%30.07 "HgN/A
9:00 PM64 °FScattered clouds.24 mph88%30.07 "HgN/A
8:30 PM66 °FScattered clouds.23 mph83%30.07 "HgN/A
8:00 PM66 °FFog.24 mph88%30.07 "HgN/A
7:30 PM66 °FFog.23 mph88%30.07 "HgN/A
7:00 PM68 °FFog.24 mph83%30.07 "HgN/A
6:30 PM68 °FFog.26 mph83%30.07 "HgN/A
6:00 PM68 °FFog.25 mph83%30.07 "HgN/A
5:30 PM70 °FBroken clouds.24 mph78%30.07 "HgN/A
5:00 PM70 °FBroken clouds.24 mph78%30.07 "HgN/A
4:30 PM72 °FBroken clouds.23 mph73%30.09 "HgN/A
4:00 PM72 °FBroken clouds.26 mph73%30.09 "HgN/A
3:30 PM70 °FBroken clouds.23 mph78%30.09 "HgN/A
3:00 PM72 °FBroken clouds.22 mph69%30.09 "HgN/A
2:30 PM70 °FBroken clouds.21 mph78%30.12 "HgN/A
2:00 PM70 °FBroken clouds.24 mph73%30.12 "HgN/A
1:30 PM70 °FScattered clouds.22 mph73%30.12 "HgN/A
1:00 PM70 °FBroken clouds.22 mph73%30.12 "HgN/A
12:30 PM68 °FBroken clouds.20 mph78%30.12 "HgN/A
12:00 PM70 °FBroken clouds.20 mph73%30.12 "HgN/A
11:30 AM68 °FBroken clouds.18 mph78%30.12 "HgN/A
11:00 AM68 °FBroken clouds.20 mph78%30.12 "HgN/A
10:30 AM66 °FBroken clouds.21 mph83%30.12 "HgN/A
10:00 AM66 °FBroken clouds.20 mph78%30.12 "HgN/A
9:30 AM66 °FBroken clouds.23 mph83%30.09 "HgN/A
9:00 AM64 °FDrizzle. Broken clouds.21 mph94%30.09 "HgN/A
8:30 AM64 °FPartly sunny.22 mph88%30.09 "HgN/A
8:00 AM64 °FPartly cloudy.22 mph88%30.09 "HgN/A
7:30 AM64 °FDrizzle. Fog.21 mph94%30.09 "Hg6 mi
7:00 AM64 °FPassing clouds.21 mph94%30.09 "Hg5 mi
6:30 AM64 °FFog.16 mph94%30.09 "HgN/A
6:00 AM64 °FFog.16 mph94%30.09 "HgN/A
Weather by CustomWeather, © 2015

See weather overviewHow to use our weather pages